Location: Rotheul
(50.2849°N, 11.2349°E)
Time: 16:59:03
(UTC+02:00)

ISS - Pass Details

Date: 14 October 2018
Orbit: 403 x 408 km, 51.6° (Epoch: 21 October)

Event Time Altitude Azimuth Distance (km) Brightness Sun altitude
Rises 19:03:32 0° 278° (W) 2,336 2.0 -6.8°
Reaches altitude 10° 19:07:29 10° 231° (SW) 1,469 -0.1 -7.4°
Maximum altitude 19:07:48 10° 225° (SW) 1,462 -0.2 -7.5°
Drops below altitude 10° 19:08:07 10° 219° (SW) 1,468 -0.3 -7.5°
Sets 19:12:03 0° 172° (S) 2,320 0.0 -8.1°
